Location: Newark
(48.5667°N, 7.8167°E)
Time: 19:22:14
(UTC+00:00)

X-37B - Pass Details

Date: 08 August 2021
Orbit: 381 x 393 km, 45.0° (Epoch: 29 August)

Event Time Altitude Azimuth Distance (km) Brightness Sun altitude
Exits shadow 03:09:43 13° 254° (WSW) 1,225 2.5 -9.6°
Maximum altitude 03:12:16 42° 184° (S) 555 1.1 -9.3°
Drops below altitude 10° 03:15:16 10° 112° (ESE) 1,397 3.8 -8.9°
Sets 03:17:23 0° 105° (ESE) 2,250 5.1 -8.6°
